Regional Weather Roundup
Issued by NWS Green Bay, WI

Home | Current Version | Previous Version | Text Only | Print | Product List | Glossary On
Versions: 1 2 3 4 5 6 7 8 9 10 11 12 13 14 15 16 17 18 19 20 21 22 23 24 25 26 27 28 29 30 31 32 33 34 35 36 37 38 39 40 41 42 43 44 45 46 47 48 49 50
000
ASUS43 KGRB 210259
RWRGRB

NORTH-CENTRAL AND NORTHEAST WISCONSIN REGIONAL WEATHER ROUNDUP
NATIONAL WEATHER SERVICE GREEN BAY WI
1000 PM CDT SUN APR 20 2014

WIZ005-009-010>012-018-019-210400-
NORTH CENTRAL WISCONSIN

CITY           SKY/WX    TMP DP  RH WIND       PRES   REMARKS
IRONWOOD       CLEAR     41  30  65 CALM      29.98F
MANITOWISH WTR NOT AVBL
ARBOR VITAE    NOT AVBL
EAGLE RIVER    NOT AVBL
LAND O LAKES   NOT AVBL
RHINELANDER    CLOUDY    49  48  97 CALM      30.03S
PHILLIPS       NOT AVBL
ANTIGO         NOT AVBL
TOMAHAWK       NOT AVBL
MERRILL        NOT AVBL
$$

WIZ013-073-210400-
NORTHEAST WISCONSIN

CITY           SKY/WX    TMP DP  RH WIND       PRES   REMARKS
IRON MOUNTAIN  CLEAR     45  43  93 CALM      29.99F FOG
MARINETTE      CLOUDY    48  45  87 CALM      30.01S
$$

WIZ017-030-035>037-045-210400-
CENTRAL WISCONSIN

CITY           SKY/WX    TMP DP  RH WIND       PRES   REMARKS
MEDFORD        NOT AVBL
WAUSAU         MOCLDY    55  52  89 S3        29.98F
MOSINEE        NOT AVBL
MARSHFIELD     CLOUDY    55  52  89 SE3       29.99F
WISC RAPIDS    MOCLDY    53  52  96 CALM      30.01F FOG
STEVENS POINT  NOT AVBL
WAUPACA        NOT AVBL
SHAWANO        NOT AVBL
CLINTONVILLE   NOT AVBL
$$

WIZ038-039-048-051-210400-
FOX VALLEY

CITY           SKY/WX    TMP DP  RH WIND       PRES   REMARKS
NWS GREEN BAY  CLOUDY    52  50  93 CALM      30.01F FOG
APPLETON       NOT AVBL
OSHKOSH        CLOUDY    53  48  83 CALM      30.00F
FOND DU LAC    CLOUDY    55  48  77 CALM      30.00S
$$

WIZ022-050-052-210400-
EAST CENTRAL WISCONSIN

CITY           SKY/WX    TMP DP  RH WIND       PRES   REMARKS
STURGEON BAY   CLOUDY    48  43  81 S5        30.03S
MANITOWOC      NOT AVBL
SHEBOYGAN      CLOUDY    51  38  60 SE3       30.01F
$$

LMZ563-521-522-541>543-210400-
LAKESHORE

STATION/POSITION TIME  TEMP    WIND        PRES    VSBY  WAVE
                       AIR SEA DIR/SP/G                  HT/PER
                 (UTC) (F)     (DEG/KT/KT) (MB)    (MI)  (FT/S)
SHEBOYGAN LKSHOR 0200   51     110/  8/  9 1017.0F
KEWAUNEE LKSHORE 0200   40      CALM  /  2 1017.3F
NORTHPORT PIER   0200   45     160/  4/  7 1016.3F
SISTER BAY LKSHO 0200   48        CALM       N/A
MENOMINEE LKSHOR 0200   43     170/  7/  8 1017.0F
$$



USA.gov is the U.S. government's official web portal to all federal, state and local government web resources and services.